Location: Elende
(51.4317°N, 10.6316°E)
Time: 07:19:04
(UTC+00:00)

CSL-04 Rocket - Pass Details

Date: 18 September 2020
Orbit: 806 x 860 km, 98.9° (Epoch: 22 October)

Event Time Altitude Azimuth Distance (km) Brightness Sun altitude
Rises 18:26:43 0° 175° (S) 3,358 6.6 -10.4°
Reaches altitude 10° 18:29:05 10° 179° (S) 2,437 5.9 -10.8°
Maximum altitude 18:34:25 59° 258° (WSW) 973 4.3 -11.6°
Drops below altitude 10° 18:39:52 10° 338° (NNW) 2,488 6.7 -12.4°
Sets 18:42:19 0° 342° (NNW) 3,435 7.4 -12.8°
